• In Latvia
  • List of Countries
  • For 7 days
  • Water Temperature
  • Satellite Maps
  • Weather Map
  • Weather Widgets
  • user-avatar
    Login

    Hourly Weather Lagmon

    Today, 20 November, Monday

    Time Temperature Precipitation Wind Pressure Humidity
    00:00 +8°C° 0 mm 2 mps 734 mmHg 41%
    01:00 +7°C° 0 mm 2 mps 734 mmHg 41%
    02:00 +7°C° 0 mm 2 mps 734 mmHg 41%
    03:00 +7°C° 0 mm 2 mps 734 mmHg 40%
    04:00 +7°C° 0 mm 2 mps 734 mmHg 41%
    05:00 +8°C° 0 mm 1 mps 734 mmHg 40%
    06:00 +8°C° 0 mm 1 mps 734 mmHg 38%
    07:00 +8°C° 0 mm 1 mps 734 mmHg 37%
    08:00 +10°C° 0 mm 1 mps 734 mmHg 32%
    09:00 +13°C° 0 mm 1 mps 734 mmHg 27%
    10:00 +16°C° 0 mm 1 mps 734 mmHg 21%
    11:00 +18°C° 0 mm 1 mps 734 mmHg 20%
    12:00 +18°C° 0 mm 1 mps 734 mmHg 19%
    13:00 +17°C° 0 mm 0 mps 734 mmHg 18%
    14:00 +18°C° 0 mm 1 mps 733 mmHg 18%
    15:00 +16°C° 0 mm 1 mps 733 mmHg 19%
    16:00 +15°C° 0 mm 1 mps 733 mmHg 20%
    17:00 +15°C° 0 mm 2 mps 733 mmHg 20%
    18:00 +14°C° 0 mm 2 mps 733 mmHg 20%
    19:00 +13°C° 0 mm 2 mps 733 mmHg 20%
    20:00 +12°C° 0 mm 2 mps 733 mmHg 20%
    21:00 +12°C° 0 mm 2 mps 732 mmHg 20%
    22:00 +10°C° 0 mm 2 mps 732 mmHg 20%
    23:00 +10°C° 0 mm 2 mps 732 mmHg 20%

    Tomorrow, 21 November, Tuesday

    Time Temperature Precipitation Wind Pressure Humidity
    00:00 +10°C° 0 mm 2 mps 732 mmHg 21%
    01:00 +9°C° 0 mm 2 mps 732 mmHg 22%
    02:00 +9°C° 0 mm 2 mps 731 mmHg 22%
    03:00 +9°C° 0 mm 2 mps 731 mmHg 23%
    04:00 +9°C° 0 mm 2 mps 731 mmHg 23%
    05:00 +9°C° 0 mm 2 mps 731 mmHg 22%
    06:00 +9°C° 0 mm 2 mps 731 mmHg 22%
    07:00 +9°C° 0 mm 2 mps 731 mmHg 21%
    08:00 +13°C° 0 mm 2 mps 732 mmHg 18%
    09:00 +15°C° 0 mm 2 mps 732 mmHg 14%
    10:00 +18°C° 0 mm 2 mps 732 mmHg 11%
    11:00 +20°C° 0 mm 1 mps 731 mmHg 10%
    12:00 +21°C° 0 mm 1 mps 731 mmHg 9%
    13:00 +22°C° 0 mm 1 mps 731 mmHg 8%
    14:00 +21°C° 0 mm 1 mps 730 mmHg 9%
    15:00 +19°C° 0 mm 1 mps 730 mmHg 10%
    16:00 +18°C° 0 mm 1 mps 730 mmHg 11%
    17:00 +16°C° 0 mm 2 mps 729 mmHg 11%
    18:00 +15°C° 0 mm 2 mps 729 mmHg 11%
    19:00 +14°C° 0 mm 2 mps 729 mmHg 11%
    20:00 +14°C° 0 mm 2 mps 729 mmHg 11%
    21:00 +13°C° 0 mm 2 mps 729 mmHg 11%
    22:00 +13°C° 0 mm 2 mps 728 mmHg 11%
    23:00 +12°C° 0 mm 2 mps 728 mmHg 12%

    Day after tomorrow, 22 November, Wednesday

    Time Temperature Precipitation Wind Pressure Humidity
    00:00 +12°C° 0 mm 2 mps 728 mmHg 12%
    01:00 +10°C° 0 mm 2 mps 728 mmHg 12%
    02:00 +10°C° 0 mm 2 mps 727 mmHg 12%
    03:00 +10°C° 0 mm 2 mps 727 mmHg 11%
    04:00 +10°C° 0 mm 2 mps 727 mmHg 11%
    05:00 +10°C° 0 mm 2 mps 727 mmHg 10%
    06:00 +10°C° 0 mm 3 mps 727 mmHg 9%
    07:00 +11°C° 0 mm 3 mps 727 mmHg 9%
    08:00 +14°C° 0 mm 3 mps 727 mmHg 7%
    09:00 +17°C° 0 mm 2 mps 727 mmHg 6%
    10:00 +20°C° 0 mm 2 mps 728 mmHg 4%
    11:00 +21°C° 0 mm 2 mps 727 mmHg 4%
    12:00 +23°C° 0 mm 2 mps 727 mmHg 3%
    13:00 +25°C° 0 mm 2 mps 726 mmHg 3%
    14:00 +23°C° 0 mm 1 mps 726 mmHg 4%
    15:00 +21°C° 0 mm 1 mps 726 mmHg 4%
    16:00 +19°C° 0 mm 1 mps 725 mmHg 5%
    17:00 +18°C° 0 mm 1 mps 725 mmHg 5%
    18:00 +17°C° 0 mm 2 mps 726 mmHg 5%
    19:00 +16°C° 0 mm 2 mps 726 mmHg 5%
    20:00 +16°C° 0 mm 2 mps 726 mmHg 5%
    21:00 +16°C° 0 mm 2 mps 726 mmHg 5%
    22:00 +16°C° 0 mm 2 mps 726 mmHg 6%
    23:00 +16°C° 0 mm 2 mps 725 mmHg 6%

    23 November, Thursday

    Time Temperature Precipitation Wind Pressure Humidity
    00:00 +16°C° 0 mm 2 mps 725 mmHg 6%
    01:00 +15°C° 0 mm 2 mps 725 mmHg 6%
    02:00 +16°C° 0 mm 2 mps 725 mmHg 6%
    03:00 +16°C° 0 mm 3 mps 725 mmHg 6%
    04:00 +16°C° 0 mm 3 mps 725 mmHg 5%
    05:00 +16°C° 0 mm 3 mps 725 mmHg 5%
    06:00 +16°C° 0 mm 3 mps 725 mmHg 5%
    07:00 +16°C° 0 mm 3 mps 725 mmHg 5%
    08:00 +18°C° 0 mm 3 mps 726 mmHg 4%
    09:00 +20°C° 0 mm 3 mps 726 mmHg 4%
    10:00 +22°C° 0 mm 3 mps 726 mmHg 3%
    11:00 +24°C° 0 mm 3 mps 726 mmHg 3%
    12:00 +25°C° 0 mm 3 mps 726 mmHg 3%
    13:00 +26°C° 0 mm 3 mps 726 mmHg 3%
    14:00 +25°C° 0 mm 3 mps 725 mmHg 3%
    15:00 +22°C° 0 mm 3 mps 725 mmHg 4%
    16:00 +21°C° 0 mm 2 mps 725 mmHg 4%
    17:00 +20°C° 0 mm 2 mps 725 mmHg 5%
    18:00 +19°C° 0 mm 3 mps 725 mmHg 5%
    19:00 +19°C° 0 mm 3 mps 726 mmHg 5%
    20:00 +18°C° 0 mm 3 mps 726 mmHg 5%
    21:00 +18°C° 0 mm 3 mps 726 mmHg 5%
    22:00 +18°C° 0 mm 3 mps 726 mmHg 5%
    23:00 +18°C° 0 mm 3 mps 726 mmHg 5%

    24 November, Friday

    Time Temperature Precipitation Wind Pressure Humidity
    00:00 +18°C° 0 mm 3 mps 726 mmHg 5%
    01:00 +18°C° 0 mm 3 mps 726 mmHg 5%
    02:00 +18°C° 0 mm 3 mps 726 mmHg 6%
    03:00 +17°C° 0 mm 3 mps 726 mmHg 7%
    04:00 +17°C° 0 mm 3 mps 726 mmHg 9%
    05:00 +17°C° 0 mm 3 mps 726 mmHg 10%
    06:00 +17°C° 0 mm 3 mps 726 mmHg 12%
    07:00 +17°C° 0 mm 3 mps 727 mmHg 14%
    08:00 +19°C° 0 mm 2 mps 727 mmHg 13%
    09:00 +21°C° 0 mm 2 mps 728 mmHg 11%
    10:00 +24°C° 0 mm 2 mps 728 mmHg 10%
    11:00 +24°C° 0 mm 2 mps 728 mmHg 9%
    12:00 +25°C° 0 mm 2 mps 728 mmHg 8%
    13:00 +26°C° 0 mm 2 mps 727 mmHg 7%
    14:00 +25°C° 0 mm 2 mps 727 mmHg 7%
    15:00 +24°C° 0 mm 2 mps 727 mmHg 8%
    16:00 +23°C° 0 mm 2 mps 727 mmHg 9%
    17:00 +21°C° 0 mm 2 mps 727 mmHg 10%
    18:00 +20°C° 0 mm 2 mps 728 mmHg 12%
    19:00 +20°C° 0 mm 1 mps 728 mmHg 14%
    20:00 +18°C° 0 mm 2 mps 728 mmHg 17%
    21:00 +18°C° 0 mm 3 mps 728 mmHg 19%
    22:00 +18°C° 0 mm 4 mps 728 mmHg 22%
    23:00 +17°C° 0 mm 3 mps 728 mmHg 27%

    25 November, Saturday

    Time Temperature Precipitation Wind Pressure Humidity
    00:00 +17°C° 0 mm 3 mps 728 mmHg 32%
    01:00 +17°C° 0 mm 3 mps 728 mmHg 37%
    02:00 +16°C° 0 mm 2 mps 728 mmHg 36%
    03:00 +16°C° 0 mm 2 mps 728 mmHg 35%
    04:00 +15°C° 0 mm 2 mps 727 mmHg 34%
    05:00 +15°C° 0 mm 2 mps 727 mmHg 36%
    06:00 +14°C° 0 mm 1 mps 728 mmHg 38%
    07:00 +14°C° 0 mm 1 mps 728 mmHg 40%
    08:00 +16°C° 0 mm 1 mps 728 mmHg 35%
    09:00 +19°C° 0 mm 1 mps 728 mmHg 29%
    10:00 +21°C° 0 mm 1 mps 728 mmHg 24%
    11:00 +22°C° 0 mm 1 mps 727 mmHg 21%
    12:00 +23°C° 0 mm 1 mps 727 mmHg 18%
    13:00 +24°C° 0 mm 1 mps 726 mmHg 15%
    14:00 +23°C° 0 mm 2 mps 726 mmHg 16%
    15:00 +21°C° 0 mm 2 mps 726 mmHg 17%
    16:00 +20°C° 0 mm 3 mps 726 mmHg 19%
    17:00 +18°C° 0.1 mm 4 mps 727 mmHg 30%
    18:00 +15°C° 0.1 mm 6 mps 728 mmHg 41%
    19:00 +12°C° 0.1 mm 7 mps 728 mmHg 52%
    20:00 +11°C° 0.3 mm 6 mps 729 mmHg 58%
    21:00 +11°C° 0.3 mm 6 mps 730 mmHg 64%
    22:00 +12°C° 0.3 mm 5 mps 731 mmHg 69%
    23:00 +10°C° 0.1 mm 5 mps 731 mmHg 70%
    Show more